Home   Weather   Nome   Past weeks

Flag for USA Past Weather in Nome, Alaska, USA — Yesterday and Last 2 Weeks

Now
33 °F

Light snow. Fog.


Feels Like: 23 °F
Forecast: 31 / 34 °F
Wind: 16 mph from Southwest

Location: Nome Airport

Current Time: May 25, 2017 at 4:46:56 am

Latest Report: May 25, 2017 at 4:15 am


Visibility: 5 mi

Pressure: 29.66 "Hg

Humidity: 96%

Dew Point: 32 °F

Location of NomeLocation

Past Weather in Nome — Graph

°F

Nome Temperature Yesterday

Maximum temperature yesterday: 40 °F (at 12:53 am)
Minimum temperature yesterday: 34 °F (at 8:32 pm)
Average temperature yesterday: 38 °F

High & Low Weather Summary for the Past Weeks

 TemperatureHumidityPressure
High60 °F (May 12, 8:53 pm)100% (May 13, 4:53 pm)30.31 "Hg (May 13, 4:53 pm)
Low26 °F (May 15, 1:53 am)19% (May 11, 11:53 am)29.43 "Hg (May 24, 12:53 pm)
Average39 °F79%29.78 "Hg
* Reported May 10 2:53 am — May 25 2:53 am, Nome. Weather by CustomWeather, © 2017

Note: Actual official high and low records may vary slightly from our data, if they occured in-between our weather recording intervals... More about our weather records

Advertising

Nome Weather History for the Previous 24 Hours

Scroll right to see more
 ConditionsComfort  
Time TempWeatherWind HumidityBarometerVisibility
2:53 am
Thu, May 25
32 °FLight snow. Overcast.15 mph96%29.66 "Hg7 mi
2:32 am33 °FMostly cloudy.16 mph92%29.66 "Hg10 mi
2:04 am33 °FLight snow. Fog.16 mph92%29.65 "Hg4 mi
12:53 am33 °FLight snow. Fog.15 mph96%29.64 "Hg4 mi
12:07 am33 °FLight snow. Fog.15 mph100%29.63 "Hg4 mi
10:53 pm
Wed, May 24
34 °FCloudy.20 mph88%29.61 "Hg10 mi
9:53 pm34 °FMostly cloudy.21 mph92%29.60 "Hg10 mi
9:14 pm34 °FCloudy.20 mph97%29.59 "Hg10 mi
9:04 pm34 °FMostly cloudy.21 mph100%29.59 "Hg10 mi
8:32 pm34 °FLight snow. Fog.20 mph100%29.58 "Hg2 mi
7:53 pm35 °FCloudy.18 mph88%29.57 "Hg10 mi
6:53 pm35 °FCloudy.23 mph92%29.56 "Hg10 mi
5:53 pm37 °FOvercast.23 mph86%29.53 "Hg10 mi
4:53 pm38 °FOvercast.24 mph90%29.50 "Hg10 mi
3:55 pm37 °FOvercast.20 mph93%29.49 "Hg10 mi
3:14 pm37 °FMostly cloudy.21 mph96%29.47 "Hg10 mi
2:53 pm38 °FLow clouds.20 mph97%29.46 "Hg10 mi
2:38 pm38 °FFog.22 mph100%29.45 "Hg3 mi
1:53 pm39 °FMore clouds than sun.10 mph100%29.44 "Hg10 mi
12:53 pm40 °FCloudy.12 mph100%29.43 "Hg10 mi
12:36 pm39 °FFog.10 mph100%29.43 "Hg1 mi
11:53 am39 °FFog.9 mph100%29.44 "Hg6 mi
11:01 am38 °FLight rain. Fog.5 mph100%29.44 "Hg4 mi
9:53 am38 °FLight rain. Mostly cloudy.5 mph100%29.45 "Hg10 mi
8:53 am38 °FLight rain. More clouds than sun.6 mph100%29.46 "Hg10 mi
7:53 am39 °FLight rain. Mostly cloudy.5 mph100%29.47 "Hg8 mi
6:53 am39 °FLight rain. Fog.6 mph100%29.49 "Hg5 mi
5:53 am38 °FLight rain. More clouds than sun.3 mph100%29.52 "Hg7 mi
4:57 am39 °FLight rain. Overcast.12 mph100%29.55 "Hg7 mi
4:19 am39 °FLight rain. Mostly cloudy.10 mph100%29.56 "Hg10 mi
Weather by CustomWeather, © 2017

See weather overviewHow to use our weather pages